Content
SEND FEEDBACK

Daily
Averages
Monthly
Summary
United States of America

WAHWEAP, ARIZONA


Home > North America > United States > Arizona
Elevation: 3703 feet     Latitude: 36 59N     Longitude: 111 29W

WEATHER
 
SELECT A DAY
Number of Records: 194,608;   Date Range: 1/1/95 - 7/20/14
 
SHARE

PRINT THIS DATA

[ ← Previous Day ]
WEATHER ALMANAC - APRIL 6, 2013
[ Next Day → ]
[ °C ]   °F
Weather ElementAverageHighLow
Temperature67 °F78.1 °F (2:53 pm)57 °F (5:53 am)
Dewpoint23.3 °F28 °F (1:53 am)16 °F (2:53 pm)
Humidity20.4 %33 % (6:53 am)10 % (2:53 pm)
Barometer29.78 in29.86 in (7:53 am)29.69 in (3:53 pm)
Wind Speed4.9 mph13.8 mph (4:53 pm)
Wind Gust25.3 mph (5:53 pm)
Weather ElementAverage
Visibility10 mi
Wind DirectionSE (138.7 °)

Weather ElementTotal
Precipitation---
Cooling Degree Days2.6 (Base 65)
Growing Degree Days17.6 (Base 50)
Averaged from 23 records on April 6, 2013
WEATHER CONDITIONS BREAKOUT
WIND DIRECTION BREAKOUT
WEATHER BY HOUR - APRIL 6, 2013
[ °C ]   °F
Local TimeTemperatureDewpointHumidityBarometerVisibilityWind DirectionWind SpeedGust SpeedPrecipitationEventsConditions
1:53 AM63.0 °F28.0 °F27 %29.78 in10.0 miWNW (290°)3.5 mphClear
2:53 AM62.1 °F27.0 °F26 %29.78 in10.0 miWNW (300°)9.2 mphClear
3:53 AM59.0 °F28.0 °F31 %29.79 in10.0 miCalmClear
4:53 AM59.0 °F28.0 °F31 %29.81 in10.0 miCalmClear
5:53 AM57.0 °F27.0 °F32 %29.84 in10.0 miCalmClear
6:53 AM57.0 °F28.0 °F33 %29.85 in10.0 miCalmClear
7:53 AM61.0 °F28.0 °F29 %29.86 in10.0 miCalmClear
8:53 AM63.0 °F28.0 °F27 %29.86 in10.0 miCalmClear
9:53 AM66.9 °F27.0 °F22 %29.85 in10.0 miCalmClear
10:53 AM69.1 °F28.0 °F22 %29.84 in10.0 miVariable3.5 mphClear
11:53 AM71.1 °F27.0 °F19 %29.81 in10.0 miCalmClear
12:53 PM73.9 °F25.0 °F16 %29.78 in10.0 miVariable5.8 mphClear
1:53 PM75.0 °F19.0 °F12 %29.74 in10.0 miWSW (240°)6.9 mph17.3 mphClear
2:53 PM78.1 °F16.0 °F10 %29.70 in10.0 miWest (260°)9.2 mph23.0 mphClear
3:53 PM77.0 °F17.1 °F10 %29.69 in10.0 miWSW (250°)9.2 mph21.9 mphPartly Cloudy
4:53 PM75.0 °F19.0 °F12 %29.69 in10.0 miWest (270°)13.8 mph24.2 mphClear
5:53 PM73.0 °F19.9 °F14 %29.72 in10.0 miWest (280°)13.8 mph25.3 mphClear
6:53 PM70.0 °F19.9 °F15 %29.73 in10.0 miWNW (300°)9.2 mph19.6 mphClear
7:53 PM68.0 °F19.0 °F15 %29.75 in10.0 miVariable6.9 mphClear
8:53 PM66.9 °F19.9 °F17 %29.76 in10.0 miWSW (250°)5.8 mphClear
9:53 PM66.0 °F19.0 °F17 %29.76 in10.0 miWSW (240°)5.8 mphClear
10:53 PM64.9 °F19.0 °F17 %29.77 in10.0 miWSW (250°)4.6 mphClear
11:53 PM64.9 °F18.0 °F16 %29.75 in10.0 miWest (260°)4.6 mphClear
Hourly data recorded from KPGA, located miles away from Wahweap, Arizona







STORIES FROM OUR PARTNERS